| time (UTC) | temp C | wind direction | speed KPH | gust KPH | rain 1hr cm | rain 24hr cm | rain mn cm | humidity % | barometer mb |
| 20260906232022 | 15 | 0.0 | 0.0 | 0.00 | 0.89 | 0.89 | 98 | 1014.3 | |
| 20260906231522 | 15 | 0.0 | 0.0 | 0.00 | 0.86 | 0.86 | 98 | 1014.3 | |
| 20260906231026 | 15 | 0.0 | 0.0 | 0.00 | 0.86 | 0.86 | 98 | 1014.4 | |
| 20260906230521 | 15 | 0.0 | 0.0 | 0.00 | 0.86 | 0.86 | 98 | 1014.4 | |
| 20260906230021 | 16 | 0.0 | 0.0 | 0.00 | 0.86 | 0.86 | 98 | 1014.3 | |
| 20260906225523 | 16 | 0.0 | 0.0 | 0.00 | 0.86 | 0.86 | 98 | 1014.3 | |
| 20260906225023 | 16 | 0.0 | 0.0 | 0.00 | 0.86 | 0.86 | 98 | 1014.2 | |
| 20260906224522 | 16 | 0.0 | 0.0 | 0.00 | 0.86 | 0.86 | 98 | 1014.2 | |
| 20260906224022 | 16 | 0.0 | 0.0 | 0.00 | 0.86 | 0.86 | 98 | 1014.2 | |
| 20260906223522 | 16 | 0.0 | 0.0 | 0.00 | 0.86 | 0.86 | 98 | 1014.1 | |
| 20260906223022 | 16 | 0.0 | 0.0 | 0.00 | 0.86 | 0.86 | 98 | 1014.2 | |
| 20260906222521 | 16 | 0.0 | 0.0 | 0.00 | 0.86 | 0.86 | 97 | 1014.2 | |
| 20260906222021 | 16 | 0.0 | 0.0 | 0.00 | 0.86 | 0.86 | 97 | 1014.1 | |
| 20260906221523 | 16 | 0.0 | 0.0 | 0.00 | 0.86 | 0.86 | 98 | 1014.0 | |
| 20260906221021 | 16 | 0.0 | 1.6 | 0.00 | 0.86 | 0.86 | 98 | 1014.0 | |
| 20260906220522 | 16 | 119 | 0.0 | 1.6 | 0.00 | 0.86 | 0.86 | 98 | 1013.9 |
| 20260906220022 | 16 | 119 | 0.0 | 1.6 | 0.13 | 0.86 | 0.86 | 98 | 1013.9 |
| 20260906215522 | 16 | 119 | 0.0 | 1.6 | 0.23 | 0.86 | 0.86 | 97 | 1013.8 |
| 20260906215022 | 16 | 0.0 | 0.0 | 0.23 | 0.86 | 0.86 | 97 | 1014.0 | |
| 20260906214522 | 16 | 119 | 0.0 | 1.6 | 0.23 | 0.86 | 0.86 | 97 | 1013.9 |
| 20260906214021 | 16 | 0.0 | 0.0 | 0.23 | 0.86 | 0.86 | 97 | 1014.0 | |
| 20260906213521 | 16 | 0.0 | 0.0 | 0.23 | 0.86 | 0.86 | 97 | 1014.0 | |
| 20260906213021 | 16 | 119 | 0.0 | 1.6 | 0.23 | 0.86 | 0.86 | 96 | 1014.0 |
| 20260906212522 | 16 | 119 | 0.0 | 1.6 | 0.23 | 0.86 | 0.86 | 95 | 1013.9 |
| 20260906212022 | 17 | 0.0 | 1.6 | 0.23 | 0.86 | 0.86 | 94 | 1014.0 | |
| 20260906211543 | 17 | 119 | 0.0 | 1.6 | 0.23 | 0.86 | 0.86 | 92 | 1014.0 |
| 20260906211022 | 17 | 118 | 0.0 | 1.6 | 0.23 | 0.86 | 0.86 | 89 | 1013.9 |
| 20260906210521 | 18 | 109 | 0.0 | 1.6 | 0.23 | 0.86 | 0.86 | 83 | 1013.9 |
| 20260906210021 | 20 | 61 | 1.6 | 4.8 | 0.10 | 0.76 | 0.76 | 73 | 1013.9 |
| 20260906205521 | 20 | 60 | 1.6 | 4.8 | 0.00 | 0.66 | 0.66 | 67 | 1013.6 |
| 20260906205023 | 20 | 90 | 1.6 | 6.4 | 0.00 | 0.66 | 0.66 | 64 | 1013.5 |
| 20260906204523 | 21 | 96 | 1.6 | 6.4 | 0.00 | 0.66 | 0.66 | 64 | 1013.6 |
| 20260906204022 | 21 | 37 | 1.6 | 11.3 | 0.00 | 0.66 | 0.66 | 64 | 1013.5 |
| 20260906203522 | 21 | 76 | 1.6 | 6.4 | 0.00 | 0.66 | 0.66 | 63 | 1013.5 |
| 20260906203022 | 21 | 217 | 4.8 | 12.9 | 0.00 | 0.66 | 0.66 | 65 | 1013.6 |
| 20260906202522 | 21 | 317 | 3.2 | 9.7 | 0.00 | 0.66 | 0.66 | 67 | 1013.5 |
| 20260906202022 | 21 | 117 | 0.0 | 3.2 | 0.00 | 0.66 | 0.66 | 62 | 1013.7 |
| 20260906201021 | 20 | 108 | 1.6 | 3.2 | 0.00 | 0.66 | 0.66 | 63 | 1013.6 |
| 20260906200521 | 20 | 106 | 1.6 | 4.8 | 0.00 | 0.66 | 0.66 | 64 | 1013.6 |
| 20260906200021 | 20 | 113 | 3.2 | 6.4 | 0.00 | 0.66 | 0.66 | 66 | 1013.6 |
| 20260906195523 | 20 | 100 | 3.2 | 6.4 | 0.00 | 0.66 | 0.66 | 67 | 1013.6 |
| 20260906195022 | 20 | 80 | 3.2 | 9.7 | 0.00 | 0.66 | 0.66 | 68 | 1013.6 |
| 20260906194522 | 20 | 27 | 1.6 | 3.2 | 0.00 | 0.66 | 0.66 | 67 | 1013.6 |
| 20260906194022 | 20 | 241 | 0.0 | 3.2 | 0.00 | 0.66 | 0.66 | 68 | 1013.5 |
| 20260906193542 | 20 | 98 | 0.0 | 3.2 | 0.00 | 0.66 | 0.66 | 65 | 1013.6 |
| 20260906193021 | 21 | 354 | 0.0 | 1.6 | 0.00 | 0.66 | 0.66 | 63 | 1013.7 |
| 20260906192521 | 21 | 69 | 1.6 | 3.2 | 0.00 | 0.66 | 0.66 | 64 | 1013.6 |
| 20260906192021 | 21 | 72 | 1.6 | 3.2 | 0.00 | 0.66 | 0.66 | 64 | 1013.7 |
| 20260906191521 | 21 | 330 | 1.6 | 3.2 | 0.00 | 0.66 | 0.66 | 65 | 1013.7 |
| 20260906191022 | 20 | 350 | 1.6 | 3.2 | 0.00 | 0.66 | 0.66 | 67 | 1013.8 |
| 20260906190523 | 20 | 33 | 1.6 | 3.2 | 0.00 | 0.66 | 0.66 | 67 | 1013.8 |
| 20260906190027 | 20 | 293 | 1.6 | 4.8 | 0.00 | 0.66 | 0.66 | 68 | 1013.9 |
| 20260906185522 | 20 | 82 | 1.6 | 3.2 | 0.00 | 0.66 | 0.66 | 69 | 1014.0 |
| 20260906185022 | 20 | 75 | 0.0 | 3.2 | 0.00 | 0.66 | 0.66 | 69 | 1014.1 |
| 20260906184522 | 20 | 67 | 1.6 | 6.4 | 0.00 | 0.66 | 0.66 | 67 | 1014.0 |
| 20260906184022 | 20 | 343 | 1.6 | 4.8 | 0.00 | 0.66 | 0.66 | 71 | 1014.1 |
| 20260906183521 | 20 | 4 | 0.0 | 3.2 | 0.00 | 0.66 | 0.66 | 72 | 1014.2 |
| 20260906183021 | 20 | 301 | 0.0 | 4.8 | 0.00 | 0.66 | 0.66 | 70 | 1014.3 |
| 20260906182541 | 20 | 286 | 0.0 | 4.8 | 0.00 | 0.66 | 0.66 | 75 | 1014.3 |
| 20260906182023 | 20 | 340 | 0.0 | 3.2 | 0.00 | 0.66 | 0.66 | 73 | 1014.5 |
| 20260906181520 | 20 | 144 | 1.6 | 4.8 | 0.00 | 0.66 | 0.66 | 76 | 1014.5 |
| 20260906181022 | 19 | 118 | 0.0 | 3.2 | 0.00 | 0.66 | 0.66 | 75 | 1014.6 |
| 20260906180522 | 18 | 252 | 0.0 | 1.6 | 0.00 | 0.66 | 0.66 | 76 | 1014.6 |
| 20260906175521 | 18 | 229 | 0.0 | 1.6 | 0.00 | 0.66 | 0.66 | 79 | 1014.7 |
| 20260906175021 | 17 | 174 | 0.0 | 1.6 | 0.00 | 0.66 | 0.66 | 82 | 1014.7 |
| 20260906174523 | 17 | 175 | 0.0 | 1.6 | 0.00 | 0.66 | 0.66 | 86 | 1014.8 |
| 20260906174023 | 17 | 167 | 0.0 | 1.6 | 0.00 | 0.66 | 0.66 | 89 | 1014.9 |
| 20260906173523 | 16 | 61 | 0.0 | 1.6 | 0.00 | 0.66 | 0.66 | 88 | 1014.9 |
| 20260906173022 | 16 | 46 | 0.0 | 3.2 | 0.00 | 0.66 | 0.66 | 89 | 1014.9 |
| 20260906172522 | 17 | 87 | 1.6 | 9.7 | 0.00 | 0.66 | 0.66 | 87 | 1015.0 |
| 20260906172022 | 17 | 52 | 1.6 | 9.7 | 0.00 | 0.64 | 0.64 | 82 | 1015.2 |
| 20260906171522 | 18 | 339 | 3.2 | 11.3 | 0.00 | 0.64 | 0.64 | 77 | 1015.1 |
| 20260906171021 | 18 | 23 | 1.6 | 6.4 | 0.00 | 0.64 | 0.64 | 72 | 1015.0 |
| 20260906170523 | 18 | 7 | 1.6 | 6.4 | 0.00 | 0.64 | 0.64 | 74 | 1014.9 |
| 20260906170023 | 18 | 335 | 1.6 | 3.2 | 0.00 | 0.64 | 0.64 | 75 | 1014.9 |
| 20260906165523 | 18 | 61 | 1.6 | 3.2 | 0.00 | 0.64 | 0.64 | 75 | 1014.9 |
| 20260906165023 | 18 | 24 | 1.6 | 3.2 | 0.00 | 0.64 | 0.64 | 77 | 1015.0 |
| 20260906164602 | 18 | 357 | 0.0 | 3.2 | 0.00 | 0.64 | 0.64 | 83 | 1015.1 |
| 20260906164047 | 17 | 345 | 0.0 | 1.6 | 0.00 | 0.64 | 0.64 | 81 | 1015.1 |
| 20260906163522 | 17 | 12 | 0.0 | 1.6 | 0.00 | 0.64 | 0.64 | 78 | 1015.1 |
| 20260906163021 | 17 | 6 | 0.0 | 4.8 | 0.00 | 0.64 | 0.64 | 77 | 1015.0 |
| 20260906162521 | 17 | 332 | 0.0 | 3.2 | 0.00 | 0.64 | 0.64 | 77 | 1015.2 |
| 20260906162023 | 18 | 40 | 0.0 | 3.2 | 0.00 | 0.64 | 0.64 | 76 | 1015.2 |
| 20260906161601 | 17 | 29 | 0.0 | 3.2 | 0.00 | 0.64 | 0.64 | 76 | 1015.2 |
| 20260906161023 | 17 | 67 | 0.0 | 3.2 | 0.00 | 0.64 | 0.64 | 76 | 1015.2 |
| 20260906160522 | 18 | 357 | 0.0 | 3.2 | 0.00 | 0.64 | 0.64 | 76 | 1015.2 |
| 20260906160022 | 18 | 15 | 1.6 | 3.2 | 0.00 | 0.64 | 0.64 | 77 | 1015.2 |
| 20260906155522 | 18 | 67 | 0.0 | 1.6 | 0.00 | 0.64 | 0.64 | 79 | 1015.2 |
| 20260906155021 | 18 | 66 | 0.0 | 1.6 | 0.00 | 0.64 | 0.64 | 77 | 1015.2 |
| 20260906154521 | 18 | 49 | 0.0 | 3.2 | 0.00 | 0.64 | 0.64 | 76 | 1015.2 |
| 20260906154021 | 18 | 344 | 0.0 | 1.6 | 0.00 | 0.64 | 0.64 | 75 | 1015.3 |
| 20260906153523 | 19 | 45 | 1.6 | 3.2 | 0.00 | 0.64 | 0.64 | 73 | 1015.4 |
| 20260906152022 | 18 | 351 | 1.6 | 3.2 | 0.00 | 0.64 | 0.64 | 77 | 1015.3 |
| 20260906151522 | 18 | 356 | 0.0 | 4.8 | 0.00 | 0.64 | 0.64 | 78 | 1015.5 |
| 20260906151022 | 18 | 311 | 1.6 | 3.2 | 0.00 | 0.64 | 0.64 | 80 | 1015.4 |
| 20260906150542 | 18 | 336 | 1.6 | 4.8 | 0.00 | 0.64 | 0.64 | 80 | 1015.5 |
| 20260906150021 | 18 | 349 | 1.6 | 6.4 | 0.00 | 0.64 | 0.64 | 77 | 1015.6 |
| 20260906145521 | 17 | 345 | 1.6 | 6.4 | 0.00 | 0.64 | 0.64 | 82 | 1015.7 |
| 20260906145023 | 17 | 48 | 1.6 | 9.7 | 0.00 | 0.64 | 0.64 | 82 | 1015.7 |
| 20260906144523 | 17 | 49 | 0.0 | 1.6 | 0.00 | 0.64 | 0.64 | 83 | 1015.7 |
| 20260906144022 | 17 | 48 | 0.0 | 6.4 | 0.00 | 0.64 | 0.64 | 81 | 1015.6 |
| 20260906143522 | 17 | 25 | 1.6 | 6.4 | 0.00 | 0.64 | 0.64 | 82 | 1015.6 |
| 20260906143022 | 16 | 59 | 1.6 | 4.8 | 0.00 | 0.64 | 0.64 | 82 | 1015.6 |
| 20260906142542 | 16 | 338 | 1.6 | 4.8 | 0.00 | 0.64 | 0.64 | 81 | 1015.6 |
| 20260906142021 | 17 | 32 | 1.6 | 3.2 | 0.00 | 0.64 | 0.64 | 80 | 1015.5 |
| 20260906141521 | 17 | 358 | 1.6 | 4.8 | 0.00 | 0.64 | 0.64 | 80 | 1015.4 |
| 20260906141023 | 17 | 77 | 1.6 | 4.8 | 0.00 | 0.64 | 0.64 | 79 | 1015.4 |
| 20260906140523 | 17 | 88 | 1.6 | 9.7 | 0.00 | 0.64 | 0.64 | 82 | 1015.4 |
| 20260906140023 | 17 | 20 | 1.6 | 6.4 | 0.00 | 0.64 | 0.64 | 85 | 1015.5 |
| 20260906135522 | 17 | 64 | 1.6 | 4.8 | 0.00 | 0.64 | 0.64 | 85 | 1015.3 |
| 20260906135022 | 16 | 345 | 0.0 | 3.2 | 0.00 | 0.64 | 0.64 | 85 | 1015.3 |
| 20260906134542 | 16 | 76 | 1.6 | 6.4 | 0.00 | 0.64 | 0.64 | 88 | 1015.4 |
| 20260906134022 | 16 | 56 | 1.6 | 6.4 | 0.00 | 0.64 | 0.64 | 88 | 1015.5 |
| 20260906133521 | 16 | 311 | 1.6 | 4.8 | 0.00 | 0.64 | 0.64 | 88 | 1015.4 |
| 20260906133021 | 16 | 304 | 1.6 | 3.2 | 0.00 | 0.64 | 0.64 | 88 | 1015.3 |
| 20260906132523 | 16 | 317 | 1.6 | 6.4 | 0.00 | 0.64 | 0.64 | 90 | 1015.4 |
| 20260906132024 | 16 | 27 | 1.6 | 6.4 | 0.00 | 0.64 | 0.64 | 91 | 1015.5 |
| 20260906131522 | 16 | 48 | 0.0 | 3.2 | 0.00 | 0.64 | 0.64 | 90 | 1015.5 |
| 20260906131022 | 16 | 322 | 0.0 | 3.2 | 0.00 | 0.64 | 0.64 | 90 | 1015.4 |
| 20260906130522 | 16 | 347 | 0.0 | 3.2 | 0.00 | 0.64 | 0.64 | 91 | 1015.5 |
| 20260906130022 | 16 | 7 | 0.0 | 1.6 | 0.00 | 0.64 | 0.64 | 92 | 1015.5 |
| 20260906125521 | 16 | 12 | 0.0 | 1.6 | 0.00 | 0.64 | 0.64 | 93 | 1015.5 |
| 20260906125023 | 16 | 13 | 0.0 | 1.6 | 0.00 | 0.64 | 0.64 | 94 | 1015.4 |
| 20260906124523 | 16 | 17 | 0.0 | 1.6 | 0.00 | 0.64 | 0.64 | 95 | 1015.5 |
| 20260906124022 | 15 | 8 | 0.0 | 4.8 | 0.00 | 0.64 | 0.64 | 95 | 1015.5 |
| 20260906123522 | 15 | 301 | 0.0 | 1.6 | 0.00 | 0.64 | 0.64 | 96 | 1015.5 |
| 20260906123022 | 15 | 140 | 0.0 | 1.6 | 0.00 | 0.64 | 0.64 | 97 | 1015.4 |
| 20260906122522 | 15 | 140 | 0.0 | 1.6 | 0.00 | 0.64 | 0.64 | 97 | 1015.4 |
| 20260906122022 | 15 | 140 | 0.0 | 1.6 | 0.00 | 0.64 | 0.64 | 98 | 1015.3 |
| 20260906121521 | 15 | 140 | 0.0 | 1.6 | 0.00 | 0.64 | 0.64 | 99 | 1015.1 |
| 20260906121021 | 15 | 0.0 | 0.0 | 0.00 | 0.64 | 0.64 | 99 | 1015.2 | |
| 20260906120523 | 15 | 0.0 | 0.0 | 0.00 | 0.64 | 0.64 | 99 | 1015.2 | |
| 20260906120023 | 15 | 0.0 | 1.6 | 0.00 | 0.64 | 0.64 | 99 | 1015.1 | |
| 20260906115522 | 15 | 0.0 | 1.6 | 0.00 | 0.64 | 0.64 | 99 | 1015.0 | |
| 20260906115042 | 15 | 140 | 0.0 | 1.6 | 0.00 | 0.64 | 0.64 | 99 | 1014.9 |
| 20260906114522 | 15 | 0.0 | 0.0 | 0.00 | 0.64 | 0.64 | 99 | 1014.9 | |
| 20260906114042 | 15 | 0.0 | 0.0 | 0.00 | 0.64 | 0.64 | 99 | 1014.9 | |
| 20260906113521 | 15 | 0.0 | 0.0 | 0.00 | 0.64 | 0.64 | 99 | 1014.7 | |
| 20260906113021 | 15 | 0.0 | 0.0 | 0.00 | 0.64 | 0.64 | 99 | 1014.6 | |
| 20260906112521 | 14 | 0.0 | 0.0 | 0.00 | 0.64 | 0.64 | 99 | 1014.6 | |
| 20260906112043 | 15 | 0.0 | 0.0 | 0.00 | 0.64 | 0.64 | 99 | 1014.6 | |
| 20260906111520 | 14 | 0.0 | 0.0 | 0.03 | 0.64 | 0.64 | 99 | 1014.5 | |
| 20260906111022 | 14 | 0.0 | 0.0 | 0.03 | 0.64 | 0.64 | 99 | 1014.6 | |
| 20260906110522 | 14 | 0.0 | 0.0 | 0.03 | 0.64 | 0.64 | 99 | 1014.5 | |
| 20260906110022 | 14 | 0.0 | 0.0 | 0.03 | 0.64 | 0.64 | 99 | 1014.2 | |
| 20260906105522 | 14 | 0.0 | 0.0 | 0.05 | 0.64 | 0.64 | 99 | 1014.2 | |
| 20260906105041 | 14 | 0.0 | 0.0 | 0.05 | 0.64 | 0.64 | 99 | 1014.3 | |
| 20260906104521 | 14 | 0.0 | 0.0 | 0.05 | 0.64 | 0.64 | 99 | 1014.2 | |
| 20260906104021 | 14 | 0.0 | 0.0 | 0.05 | 0.64 | 0.64 | 99 | 1014.2 | |
| 20260906103523 | 14 | 0.0 | 0.0 | 0.08 | 0.64 | 0.64 | 99 | 1014.1 | |
| 20260906103023 | 14 | 0.0 | 0.0 | 0.08 | 0.64 | 0.64 | 99 | 1014.2 | |
| 20260906102643 | 14 | 0.0 | 0.0 | 0.10 | 0.64 | 0.64 | 99 | 1014.0 | |
| 20260906102022 | 14 | 0.0 | 0.0 | 0.10 | 0.64 | 0.64 | 99 | 1014.0 | |
| 20260906101522 | 14 | 0.0 | 0.0 | 0.10 | 0.61 | 0.61 | 99 | 1014.0 | |
| 20260906101022 | 14 | 0.0 | 0.0 | 0.10 | 0.61 | 0.61 | 99 | 1014.0 | |
| 20260906100541 | 14 | 0.0 | 0.0 | 0.13 | 0.61 | 0.61 | 99 | 1014.0 | |
| 20260906100021 | 14 | 0.0 | 0.0 | 0.10 | 0.61 | 0.61 | 99 | 1013.9 | |
| 20260906095523 | 14 | 0.0 | 0.0 | 0.08 | 0.58 | 0.58 | 99 | 1013.9 | |
| 20260906095023 | 14 | 0.0 | 0.0 | 0.08 | 0.56 | 0.56 | 99 | 1013.8 | |
| 20260906094547 | 14 | 0.0 | 0.0 | 0.10 | 0.56 | 0.56 | 99 | 1014.0 | |
| 20260906094022 | 14 | 0.0 | 0.0 | 0.10 | 0.56 | 0.56 | 99 | 1013.9 | |
| 20260906093522 | 14 | 140 | 0.0 | 1.6 | 0.15 | 0.56 | 0.56 | 99 | 1013.9 |
| 20260906093021 | 14 | 0.0 | 0.0 | 0.18 | 0.56 | 0.56 | 99 | 1013.8 | |
| 20260906092522 | 15 | 140 | 0.0 | 1.6 | 0.15 | 0.53 | 0.53 | 99 | 1013.7 |
| 20260906092021 | 15 | 0.0 | 0.0 | 0.15 | 0.53 | 0.53 | 99 | 1013.6 | |
| 20260906091521 | 15 | 0.0 | 0.0 | 0.15 | 0.53 | 0.53 | 99 | 1013.6 | |
| 20260906091021 | 15 | 0.0 | 0.0 | 0.13 | 0.51 | 0.51 | 99 | 1013.5 | |
| 20260906090521 | 15 | 142 | 0.0 | 1.6 | 0.15 | 0.51 | 0.51 | 99 | 1013.5 |
| 20260906090022 | 15 | 140 | 0.0 | 1.6 | 0.15 | 0.51 | 0.51 | 99 | 1013.4 |
| 20260906085522 | 15 | 0.0 | 0.0 | 0.20 | 0.51 | 0.51 | 99 | 1013.4 | |
| 20260906085022 | 15 | 0.0 | 0.0 | 0.23 | 0.48 | 0.48 | 99 | 1013.5 | |
| 20260906084522 | 15 | 0.0 | 0.0 | 0.25 | 0.48 | 0.48 | 99 | 1013.6 | |
| 20260906084022 | 15 | 0.0 | 0.0 | 0.30 | 0.48 | 0.48 | 99 | 1013.7 | |
| 20260906083521 | 15 | 0.0 | 0.0 | 0.25 | 0.41 | 0.41 | 99 | 1013.6 | |
| 20260906083021 | 15 | 140 | 0.0 | 1.6 | 0.28 | 0.38 | 0.38 | 99 | 1013.5 |
| 20260906082521 | 15 | 0.0 | 0.0 | 0.30 | 0.38 | 0.38 | 99 | 1013.2 | |
| 20260906082021 | 15 | 0.0 | 0.0 | 0.30 | 0.38 | 0.38 | 99 | 1013.2 | |
| 20260906081522 | 15 | 0.0 | 0.0 | 0.33 | 0.38 | 0.38 | 98 | 1013.1 | |
| 20260906081022 | 15 | 0.0 | 0.0 | 0.33 | 0.38 | 0.38 | 98 | 1013.1 | |
| 20260906080522 | 14 | 0.0 | 0.0 | 0.33 | 0.36 | 0.36 | 97 | 1013.0 | |
| 20260906080021 | 14 | 0.0 | 0.0 | 0.33 | 0.33 | 0.33 | 97 | 1013.0 | |
| 20260906075521 | 15 | 0.0 | 0.0 | 0.28 | 0.30 | 0.30 | 97 | 1013.1 | |
| 20260906075021 | 15 | 0.0 | 0.0 | 0.23 | 0.25 | 0.25 | 96 | 1013.0 | |
| 20260906074523 | 15 | 0.0 | 0.0 | 0.20 | 0.23 | 0.23 | 95 | 1013.0 | |
| 20260906074022 | 15 | 140 | 0.0 | 1.6 | 0.15 | 0.18 | 0.18 | 94 | 1013.1 |
| 20260906073523 | 15 | 139 | 0.0 | 4.8 | 0.13 | 0.15 | 0.15 | 92 | 1013.0 |
| 20260906073022 | 15 | 136 | 1.6 | 4.8 | 0.10 | 0.10 | 0.10 | 91 | 1013.1 |
| 20260906072522 | 16 | 101 | 3.2 | 9.7 | 0.08 | 0.10 | 0.10 | 94 | 1013.1 |
| 20260906072022 | 16 | 103 | 1.6 | 9.7 | 0.05 | 0.08 | 0.08 | 97 | 1013.0 |
| 20260906071522 | 16 | 0.0 | 1.6 | 0.05 | 0.05 | 0.05 | 97 | 1012.8 | |
| 20260906071041 | 16 | 111 | 0.0 | 1.6 | 0.03 | 0.05 | 0.05 | 97 | 1012.9 |
| 20260906070521 | 16 | 111 | 0.0 | 1.6 | 0.03 | 0.03 | 0.03 | 97 | 1012.7 |
| 20260906070021 | 16 | 0.0 | 0.0 | 0.03 | 0.03 | 0.03 | 97 | 1012.8 | |
| 20260906065521 | 16 | 0.0 | 0.0 | 0.03 | 0.03 | 0.03 | 97 | 1012.8 | |
| 20260906065021 | 16 | 0.0 | 0.0 | 0.03 | 0.03 | 0.03 | 97 | 1012.7 | |
| 20260906064522 | 16 | 0.0 | 0.0 | 0.00 | 0.00 | 0.00 | 97 | 1012.7 | |
| 20260906064022 | 16 | 0.0 | 0.0 | 0.00 | 0.00 | 0.00 | 97 | 1012.9 | |
| 20260906063522 | 16 | 0.0 | 0.0 | 0.00 | 0.00 | 0.00 | 97 | 1012.8 | |
| 20260906063021 | 16 | 0.0 | 0.0 | 0.00 | 0.00 | 0.00 | 98 | 1012.9 | |
| 20260906062522 | 16 | 0.0 | 0.0 | 0.00 | 0.00 | 0.00 | 98 | 1012.8 | |
| 20260906062102 | 16 | 0.0 | 0.0 | 0.00 | 0.00 | 0.00 | 98 | 1012.8 | |
| 20260906061542 | 16 | 0.0 | 0.0 | 0.00 | 0.00 | 0.00 | 98 | 1012.7 | |
| 20260906061042 | 16 | 0.0 | 0.0 | 0.00 | 0.00 | 0.00 | 98 | 1012.7 | |
| 20260906060521 | 16 | 0.0 | 0.0 | 0.00 | 0.00 | 0.00 | 97 | 1012.9 | |
| 20260906060021 | 16 | 0.0 | 0.0 | 0.00 | 0.00 | 0.00 | 97 | 1012.8 | |
| 20260906055521 | 16 | 0.0 | 0.0 | 0.00 | 0.00 | 0.00 | 97 | 1012.9 | |
| 20260906055021 | 16 | 0.0 | 0.0 | 0.00 | 0.00 | 0.00 | 97 | 1012.9 | |
| 20260906054520 | 16 | 0.0 | 0.0 | 0.00 | 0.00 | 0.00 | 97 | 1012.8 | |
| 20260906054042 | 16 | 0.0 | 0.0 | 0.00 | 0.00 | 0.00 | 97 | 1012.8 | |
| 20260906053521 | 16 | 0.0 | 0.0 | 0.00 | 0.00 | 0.00 | 97 | 1012.8 | |
| 20260906053021 | 16 | 0.0 | 0.0 | 0.00 | 0.00 | 0.00 | 97 | 1012.7 | |
| 20260906052601 | 16 | 0.0 | 0.0 | 0.00 | 0.00 | 0.00 | 97 | 1012.8 | |
| 20260906052022 | 16 | 0.0 | 0.0 | 0.00 | 0.00 | 0.00 | 97 | 1012.9 | |
| 20260906051522 | 16 | 0.0 | 0.0 | 0.00 | 0.00 | 0.00 | 97 | 1012.9 | |
| 20260906051022 | 16 | 0.0 | 0.0 | 0.00 | 0.00 | 0.00 | 97 | 1013.0 | |
| 20260906050522 | 16 | 0.0 | 0.0 | 0.00 | 0.00 | 0.00 | 96 | 1013.1 | |
| 20260906050021 | 16 | 0.0 | 0.0 | 0.00 | 0.00 | 0.00 | 96 | 1013.1 | |
| 20260906045526 | 16 | 0.0 | 0.0 | 0.00 | 0.00 | 0.00 | 96 | 1013.1 | |
| 20260906045021 | 16 | 0.0 | 0.0 | 0.00 | 0.00 | 0.00 | 96 | 1013.1 | |
| 20260906044520 | 16 | 0.0 | 0.0 | 0.00 | 0.00 | 0.00 | 96 | 1013.2 | |
| 20260906044020 | 16 | 0.0 | 0.0 | 0.00 | 0.00 | 0.00 | 96 | 1013.1 | |
| 20260906043524 | 16 | 0.0 | 0.0 | 0.00 | 0.00 | 0.00 | 95 | 1013.0 | |
| 20260906043022 | 16 | 0.0 | 0.0 | 0.00 | 0.00 | 0.00 | 95 | 1013.0 | |
| 20260906042522 | 16 | 0.0 | 0.0 | 0.00 | 0.00 | 0.00 | 95 | 1012.9 | |
| 20260906042021 | 16 | 0.0 | 0.0 | 0.00 | 0.00 | 0.00 | 95 | 1012.9 | |
| 20260906041521 | 16 | 0.0 | 0.0 | 0.00 | 0.00 | 0.00 | 95 | 1013.0 | |
| 20260906041023 | 16 | 0.0 | 0.0 | 0.00 | 0.00 | 0.00 | 95 | 1012.9 | |
| 20260906040543 | 16 | 0.0 | 0.0 | 0.00 | 0.00 | 0.00 | 95 | 1012.9 | |
| 20260906040023 | 16 | 0.0 | 0.0 | 0.00 | 0.00 | 0.00 | 96 | 1012.9 | |
| 20260906035522 | 16 | 0.0 | 0.0 | 0.00 | 0.00 | 0.00 | 96 | 1012.8 | |
| 20260906035022 | 16 | 0.0 | 0.0 | 0.00 | 0.00 | 0.00 | 95 | 1012.9 | |
| 20260906034522 | 16 | 0.0 | 0.0 | 0.00 | 0.00 | 0.00 | 95 | 1012.7 | |
| 20260906034042 | 16 | 0.0 | 0.0 | 0.00 | 0.00 | 0.00 | 95 | 1012.9 | |
| 20260906033521 | 16 | 0.0 | 0.0 | 0.00 | 0.00 | 0.00 | 95 | 1012.8 | |
| 20260906033023 | 16 | 0.0 | 0.0 | 0.00 | 0.00 | 0.00 | 94 | 1012.6 | |
| 20260906032523 | 16 | 0.0 | 0.0 | 0.00 | 0.00 | 0.00 | 94 | 1012.8 | |
| 20260906032023 | 16 | 0.0 | 0.0 | 0.00 | 0.00 | 0.00 | 94 | 1012.7 | |
| 20260906031543 | 16 | 0.0 | 0.0 | 0.00 | 0.00 | 0.00 | 93 | 1012.5 | |
| 20260906031022 | 16 | 0.0 | 0.0 | 0.00 | 0.00 | 0.00 | 93 | 1012.6 | |
| 20260906030522 | 16 | 0.0 | 0.0 | 0.00 | 0.00 | 0.00 | 93 | 1012.7 | |
| 20260906030024 | 16 | 0.0 | 0.0 | 0.00 | 0.00 | 0.00 | 92 | 1012.5 | |
| 20260906025521 | 16 | 111 | 0.0 | 1.6 | 0.00 | 0.00 | 0.00 | 91 | 1012.6 |
| 20260906025021 | 16 | 0.0 | 1.6 | 0.00 | 0.00 | 0.00 | 91 | 1012.6 | |
| 20260906024523 | 17 | 111 | 0.0 | 1.6 | 0.00 | 0.00 | 0.00 | 90 | 1012.5 |
| 20260906024023 | 17 | 111 | 0.0 | 1.6 | 0.00 | 0.00 | 0.00 | 90 | 1012.6 |
| 20260906023543 | 17 | 111 | 0.0 | 1.6 | 0.00 | 0.00 | 0.00 | 90 | 1012.6 |
| 20260906023042 | 17 | 111 | 0.0 | 1.6 | 0.00 | 0.00 | 0.00 | 89 | 1012.6 |
| 20260906022522 | 17 | 111 | 0.0 | 1.6 | 0.00 | 0.00 | 0.00 | 88 | 1012.5 |
| 20260906022022 | 17 | 111 | 0.0 | 1.6 | 0.00 | 0.00 | 0.00 | 87 | 1012.5 |
| 20260906021541 | 17 | 0.0 | 0.0 | 0.00 | 0.00 | 0.00 | 86 | 1012.6 | |
| 20260906021021 | 17 | 0.0 | 0.0 | 0.00 | 0.00 | 0.00 | 86 | 1012.8 | |
| 20260906020543 | 17 | 0.0 | 0.0 | 0.00 | 0.00 | 0.00 | 86 | 1012.8 | |
| 20260906020023 | 17 | 0.0 | 0.0 | 0.00 | 0.00 | 0.00 | 86 | 1012.8 | |
| 20260906015522 | 17 | 0.0 | 0.0 | 0.00 | 0.00 | 0.00 | 86 | 1012.8 | |
| 20260906015023 | 17 | 0.0 | 0.0 | 0.00 | 0.00 | 0.00 | 86 | 1012.6 | |
| 20260906014547 | 17 | 0.0 | 0.0 | 0.00 | 0.00 | 0.00 | 86 | 1012.7 | |
| 20260906014022 | 17 | 0.0 | 0.0 | 0.00 | 0.00 | 0.00 | 87 | 1012.8 | |
| 20260906013542 | 17 | 110 | 0.0 | 1.6 | 0.00 | 0.00 | 0.00 | 86 | 1012.8 |
| 20260906013022 | 17 | 0.0 | 0.0 | 0.00 | 0.00 | 0.00 | 85 | 1012.7 | |
| 20260906012521 | 17 | 0.0 | 0.0 | 0.00 | 0.00 | 0.00 | 85 | 1012.8 | |
| 20260906012023 | 17 | 0.0 | 0.0 | 0.00 | 0.00 | 0.00 | 84 | 1012.7 | |
| 20260906011521 | 17 | 0.0 | 0.0 | 0.00 | 0.00 | 0.00 | 83 | 1012.6 | |
| 20260906011023 | 17 | 0.0 | 0.0 | 0.00 | 0.00 | 0.00 | 84 | 1012.7 | |
| 20260906010522 | 17 | 0.0 | 0.0 | 0.00 | 0.00 | 0.00 | 83 | 1012.6 | |
| 20260906010022 | 17 | 0.0 | 0.0 | 0.00 | 0.00 | 0.00 | 83 | 1012.6 | |
| 20260906005522 | 17 | 0.0 | 0.0 | 0.00 | 0.00 | 0.00 | 83 | 1012.6 | |
| 20260906005042 | 17 | 0.0 | 0.0 | 0.00 | 0.00 | 0.00 | 83 | 1012.6 | |
| 20260906004522 | 17 | 0.0 | 0.0 | 0.00 | 0.00 | 0.00 | 83 | 1012.6 | |
| 20260906004021 | 17 | 0.0 | 0.0 | 0.00 | 0.00 | 0.00 | 82 | 1012.4 | |
| 20260906003521 | 17 | 0.0 | 0.0 | 0.00 | 0.00 | 0.00 | 82 | 1012.3 | |
| 20260906003023 | 17 | 0.0 | 0.0 | 0.00 | 0.00 | 0.00 | 82 | 1012.3 | |
| 20260906002523 | 17 | 0.0 | 0.0 | 0.00 | 0.00 | 0.00 | 82 | 1012.4 | |
| 20260906002023 | 17 | 0.0 | 0.0 | 0.00 | 0.00 | 0.00 | 82 | 1012.3 | |
| 20260906001522 | 17 | 0.0 | 0.0 | 0.00 | 0.00 | 0.00 | 82 | 1012.2 | |
| 20260906001022 | 17 | 0.0 | 0.0 | 0.00 | 0.00 | 0.00 | 82 | 1012.2 | |
| 20260906000521 | 17 | 0.0 | 0.0 | 0.00 | 0.00 | 0.00 | 81 | 1012.2 | |
| 20260906000021 | 17 | 0.0 | 0.0 | 0.00 | 0.00 | 0.00 | 81 | 1012.1 | |
| 20260905235521 | 17 | 0.0 | 0.0 | 0.00 | 0.00 | 0.00 | 80 | 1012.2 | |
| 20260905235021 | 17 | 0.0 | 0.0 | 0.00 | 0.00 | 0.00 | 80 | 1012.2 | |
| 20260905234523 | 17 | 0.0 | 0.0 | 0.00 | 0.00 | 0.00 | 80 | 1012.2 | |
| 20260905234022 | 17 | 111 | 0.0 | 3.2 | 0.00 | 0.00 | 0.00 | 79 | 1012.2 |
| 20260905233523 | 17 | 110 | 0.0 | 3.2 | 0.00 | 0.00 | 0.00 | 79 | 1012.0 |
| 20260905233022 | 17 | 111 | 1.6 | 3.2 | 0.00 | 0.00 | 0.00 | 79 | 1012.0 |
| 20260905232522 | 17 | 111 | 1.6 | 3.2 | 0.00 | 0.00 | 0.00 | 79 | 1011.9 |